[[{"header":{"parameterUnit":"m.s-1","parameterCategory":2,"la1":30.2991,"la2":30.254,"lo1":-89.0895,"lo2":-89.0444,"dy":0.0017,"dx":0.0017,"nx":28,"ny":28,"refTime":"2024-08-27T03:00:00:Z","depth":"0","parameterNumber":2,"parameterNumberName":"U-component_of_CURRENTS"},"data":[0,0,0,0,0,0,0,0,0,0,0,0,0,0,0,0,0,0,0,0,0,0,0,0,0,0,0,0,0,0,0,0,0,0,0,0,0,0,0,0,0,0,0,0,0,0,0,0,0,0,0,0,0,0,0,0,0,0,0.2125,0.2124,0,0.2095,0.2094,0.2093,0.2092,0.2093,0.2094,0.2094,0.2041,0.2039,0.2037,0,0,0,0,0,0,0,0,0,0,0,0,0,0.223,0.2228,0.2125,0.2124,0.2124,0.2095,0.2094,0.2093,0.2092,0.2093,0.2094,0.2095,0.2042,0.2039,0.2037,0,0,0,0,0,0,0,0,0,0,0,0,0,0.2187,0.2227,0.2125,0.2123,0.2123,0.2095,0.2094,0.2093,0.2092,0.2093,0.2094,0.2095,0.2042,0.2039,0.2036,0.1996,0,0,0.2027,0.2025,0,0,0,0,0,0,0,0,0.2189,0.2183,0.2123,0.2123,0.2123,0.2101,0.2112,0.2061,0.2092,0.21,0.2094,0.2096,0.2061,0.2056,0.2043,0.1993,0.1991,0.2026,0.2025,0.2023,0.2022,0,0,0,0,0,0,0,0.2192,0.2184,0.2109,0.2123,0.2123,0.2141,0.2135,0.2102,0.2071,0.2099,0.21,0.2102,0.206,0.2046,0.2042,0.199,0.2027,0.2024,0.2022,0.2021,0.1964,0.1965,0,0,0,0,0,0,0.2199,0.2186,0.211,0.2108,0.2164,0.2139,0.2132,0.2104,0.2072,0.207,0.2101,0.2102,0.2051,0.2045,0.204,0.2036,0.2023,0.202,0.2019,0.1964,0.1964,0.1965,0,0,0,0,0,0,0.2201,0.2191,0.2111,0.2152,0.2144,0.2136,0.2105,0.2103,0.2099,0.2075,0.2071,0.2101,0.2052,0.2044,0.2021,0.2032,0.2019,0.2016,0.1963,0.1964,0.1965,0.1998,0,0,0,0,0,0,0.2203,0.2191,0.2172,0.2151,0.2142,0.2099,0.2104,0.2102,0.21,0.2101,0.2072,0.2068,0.2052,0.2026,0.2018,0.2028,0.2014,0.1963,0.1964,0.1964,0.1997,0.2,0.2003,0,0,0,0,0,0.2207,0.217,0.2171,0.2162,0.2115,0.2099,0.2095,0.2092,0.2099,0.2093,0.208,0.207,0.2026,0.2023,0.2014,0.2023,0.1963,0.1964,0.1964,0.1995,0.1999,0.2003,0,0,0,0,0,0,0.2203,0.2166,0.2167,0.212,0.2117,0.2101,0.2091,0.2094,0.2077,0.208,0.2061,0.2055,0.2046,0.2025,0.2023,0.2011,0.1997,0.1996,0.2024,0.2028,0.2031,0.2068,0.2011,0,0,0,0,0,0.2194,0.2158,0.2144,0.2111,0.2108,0.2103,0.2097,0.2098,0.2084,0.2079,0.2061,0.2046,0.2038,0.2026,0.201,0.1988,0.2029,0.1992,0.1995,0.1998,0.2023,0.2121,0.2136,0.1967,0.1967,0.1967,0,0,0.2187,0.2162,0.2144,0.2109,0.2104,0.21,0.21,0.2092,0.2094,0.2073,0.206,0.2052,0.2036,0.2025,0.2019,0.2009,0.2059,0.1999,0.2001,0.2026,0.2124,0.2141,0.2156,0.1968,0.1968,0.1968,0,0,0.2168,0.2132,0.2109,0.2105,0.21,0.2095,0.2097,0.2085,0.2085,0.2069,0.2071,0.2079,0.2034,0.2046,0.2043,0.2051,0.2076,0.2036,0.2075,0.2168,0.2184,0.2199,0.2245,0.2263,0.2033,0.2033,0.2033,0,0.2171,0.2128,0.2105,0.2096,0.2097,0.2097,0.2097,0.209,0.2076,0.2083,0.207,0.2073,0.2054,0.2081,0.2087,0.2061,0.2107,0.206,0.2177,0.2192,0.2207,0.225,0.2271,0.2035,0.2035,0.2035,0.2034,0,0.2145,0.2121,0.211,0.2094,0.2093,0.2087,0.2089,0.2088,0.2087,0.2092,0.2114,0.2105,0.2121,0.211,0.2096,0.2181,0.2176,0.2176,0.2175,0.2226,0.2268,0.2288,0.2037,0.2037,0.2036,0.2036,0,0,0.213,0.2099,0.2097,0.21,0.2093,0.2092,0.2096,0.2107,0.2133,0.2125,0.2167,0.2163,0.2186,0.2187,0.2186,0.2256,0.2377,0.2261,0.2265,0.2319,0.2568,0.2379,0.2383,0.241,0.2414,0.2418,0.2547,0,0.2127,0.2107,0.2092,0.2094,0.2092,0.2099,0.2109,0.2124,0.2138,0.2173,0.2197,0.2232,0.2207,0.2233,0.2301,0.2371,0.2438,0.2341,0.25,0.2504,0.2342,0.2403,0.2216,0.23,0.2567,0.257,0.2573,0,0.2111,0.21,0.2095,0.2103,0.2106,0.2111,0.2146,0.2158,0.2207,0.2225,0.2277,0.2304,0.2395,0.2373,0.2537,0.2482,0.2535,0.2579,0.2585,0.2419,0.2354,0.2297,0.2328,0.223,0.2604,0.2602,0.2599,0,0.2116,0.2104,0.21,0.2102,0.2111,0.2122,0.2133,0.2175,0.2201,0.228,0.2321,0.2419,0.2479,0.2589,0.265,0.2628,0.2824,0.2803,0.2678,0.2664,0.254,0.2506,0.2508,0.2938,0.2938,0.2938,0.2937,0,0.2109,0.2105,0.2102,0.2103,0.2119,0.213,0.2168,0.2193,0.2254,0.2293,0.236,0.2416,0.2548,0.2646,0.2707,0.274,0.2876,0.2705,0.2699,0.2536,0.2502,0.2435,0.2407,0.2942,0.2941,0.294,0.294,0,0.2097,0.2096,0.2097,0.211,0.2118,0.213,0.2172,0.2201,0.2264,0.2325,0.2359,0.2462,0.2565,0.2656,0.2823,0.2784,0.2737,0.283,0.2591,0.255,0.2272,0.225,0.217,0.212,0.2716,0.2712,0.2709,0,0.207,0.2075,0.2099,0.2105,0.2105,0.2129,0.2145,0.2198,0.2224,0.2333,0.2356,0.2471,0.2504,0.2634,0.2615,0.2664,0.2617,0.2494,0.2398,0.2237,0.2215,0.2125,0.2086,0.2258,0.2251,0.2246,0.2242,0,0.2048,0.2071,0.209,0.2096,0.2109,0.2113,0.2135,0.2155,0.2214,0.2262,0.2316,0.2361,0.2408,0.2338,0.2346,0.2353,0.2291,0.2376,0.232,0.1936,0.174,0.1692,0.2169,0.2194,0.2199,0.2202,0.2205,0.2207,0.2046,0.2056,0.2095,0.2093,0.2096,0.2076,0.2055,0.2072,0.2095,0.2095,0.2194,0.2165,0.2104,0.2056,0.2053,0.1844,0.193,0.1746,0.1764,0.171,0.1554,0.1869,0.18,0.1802,0.1804,0.1806,0.1808,0,0.2042,0.2068,0.2077,0.2067,0.2029,0.2044,0.2026,0.1975,0.1938,0.1941,0.1936,0.1796,0.1661,0.1609,0.1397,0.1273,0.1246,0.1219,0.111,0.1132,0.1516,0.1382,0.1083,0.1083,0.1083,0.1084,0.1084,0.1084,0.2058,0.2076,0.2073,0.2009,0.1975,0.1883,0.1846,0.1773,0.1735,0.159,0.147,0.1435,0.1317,0.1073,0.088,0.0859,0.0809,0.066,0.0773,0.1072,0.1125,0.1175,0.1043,0.0678,0.0678,0.0299,0.0296,0.0294]},{"header":{"parameterUnit":"m.s-1","parameterCategory":2,"la1":30.2991,"la2":30.254,"lo1":-89.0895,"lo2":-89.0444,"dy":0.0017,"dx":0.0017,"nx":28,"ny":28,"refTime":"2024-08-27T03:00:00:Z","depth":"0","parameterNumber":3,"parameterNumberName":"V-component_of_CURRENTS"},"data":[0,0,0,0,0,0,0,0,0,0,0,0,0,0,0,0,0,0,0,0,0,0,0,0,0,0,0,0,0,0,0,0,0,0,0,0,0,0,0,0,0,0,0,0,0,0,0,0,0,0,0,0,0,0,0,0,0,0,0.0019,0.0017,0,-0.0086,-0.0087,-0.0087,-0.0123,-0.0123,-0.0123,-0.0123,-0.0171,-0.0172,-0.0173,0,0,0,0,0,0,0,0,0,0,0,0,0,0.0196,0.0193,0.0019,0.0017,0.0015,-0.0085,-0.0087,-0.0088,-0.0123,-0.0123,-0.0123,-0.0123,-0.017,-0.0172,-0.0173,0,0,0,0,0,0,0,0,0,0,0,0,0,0.0111,0.0192,0.0019,-0.0017,-0.0021,-0.0085,-0.0087,-0.0088,-0.0124,-0.0123,-0.0123,-0.0123,-0.017,-0.0172,-0.0174,-0.0189,0,0,-0.018,-0.0181,0,0,0,0,0,0,0,0,0.0116,0.0105,-0.001,-0.0015,-0.002,-0.0094,-0.0042,-0.012,-0.0124,-0.0081,-0.0123,-0.0123,-0.0142,-0.0146,-0.0162,-0.0192,-0.0194,-0.018,-0.0181,-0.0182,-0.0183,0,0,0,0,0,0,0,0.0122,0.011,-0.0019,-0.0012,-0.0018,-0.0025,-0.0036,-0.0057,-0.0108,-0.0085,-0.0089,-0.0106,-0.0144,-0.016,-0.0164,-0.0194,-0.018,-0.0182,-0.0183,-0.0184,-0.0198,-0.0197,0,0,0,0,0,0,0.0127,0.0115,-0.0016,-0.0023,0.0046,-0.0028,-0.0041,-0.0068,-0.0109,-0.0116,-0.0106,-0.0107,-0.0157,-0.0161,-0.0165,-0.0144,-0.0182,-0.0184,-0.0185,-0.0199,-0.0198,-0.0197,0,0,0,0,0,0,0.0131,0.0116,-0.0012,0.0042,0.0025,-0.0032,-0.0061,-0.007,-0.0088,-0.0126,-0.0131,-0.0115,-0.0157,-0.0163,-0.0184,-0.0148,-0.0185,-0.0187,-0.02,-0.0199,-0.0197,-0.0129,0,0,0,0,0,0,0.0137,0.0118,0.0106,0.0042,0.0022,-0.0045,-0.0062,-0.0072,-0.01,-0.0103,-0.0136,-0.014,-0.0157,-0.0181,-0.0186,-0.0151,-0.0188,-0.0201,-0.0199,-0.0198,-0.0133,-0.0126,-0.012,0,0,0,0,0,0.0143,0.0117,0.0106,0.009,0.0005,-0.0046,-0.0056,-0.0093,-0.0101,-0.0108,-0.0131,-0.0139,-0.0173,-0.0183,-0.0189,-0.0154,-0.0202,-0.02,-0.0198,-0.0135,-0.0127,-0.012,0,0,0,0,0,0,0.0186,0.0109,0.0095,0.0047,0.0009,-0.0053,-0.0067,-0.0092,-0.0118,-0.0115,-0.0145,-0.0151,-0.015,-0.0169,-0.0178,-0.0153,-0.0182,-0.0181,-0.0132,-0.0125,-0.0119,-0.008,-0.019,0,0,0,0,0,0.019,0.0155,0.009,0.0058,0.0039,-0.001,-0.0033,-0.0058,-0.0094,-0.0106,-0.013,-0.0144,-0.0148,-0.0151,-0.0166,-0.0163,-0.0146,-0.014,-0.0133,-0.0128,-0.01,-0.0039,-0.0023,-0.0191,-0.0191,-0.0191,0,0,0.0198,0.0152,0.0133,0.0066,0.0036,0.0018,-0.0022,-0.0056,-0.0057,-0.0105,-0.011,-0.013,-0.0145,-0.0137,-0.0136,-0.0147,-0.0077,-0.0126,-0.0121,-0.0095,-0.0035,-0.0018,-0.0003,-0.0189,-0.019,-0.019,0,0,0.0203,0.0159,0.0138,0.011,0.0062,0.0036,0.0029,-0.0027,-0.0036,-0.0055,-0.0073,-0.0069,-0.0101,-0.0087,-0.0086,-0.0054,-0.0049,-0.0061,0.0007,0.0066,0.0081,0.0095,0.0118,0.0133,-0.0053,-0.0053,-0.0053,0,0.0221,0.0182,0.0128,0.011,0.0099,0.005,0.0047,0.0027,-0.0024,-0.0009,-0.0045,-0.0039,-0.0064,-0.0014,-0.0007,-0.0034,-0.0015,-0.0021,0.0078,0.0092,0.0105,0.0125,0.0141,-0.0049,-0.005,-0.005,-0.005,0,0.0214,0.0192,0.0181,0.0149,0.0133,0.0118,0.0089,0.0088,0.0071,0.006,0.0089,0.0056,0.0075,0.0063,0.0032,0.0117,0.0094,0.0076,0.0065,0.0126,0.0142,0.0158,-0.0044,-0.0046,-0.0047,-0.0047,0,0,0.0235,0.0186,0.0187,0.0195,0.0156,0.0149,0.0163,0.0172,0.0215,0.0175,0.0241,0.0216,0.0214,0.0216,0.0191,0.0229,0.0311,0.0193,0.0195,0.0227,0.0426,0.0385,0.0397,0.0314,0.0318,0.0321,0.0393,0,0.0255,0.0244,0.0214,0.0234,0.0233,0.0219,0.0248,0.0259,0.0267,0.0316,0.0312,0.0352,0.0269,0.0295,0.0321,0.0328,0.0359,0.0292,0.0353,0.0354,0.0321,0.0417,0.0397,0.046,0.0408,0.0411,0.0413,0,0.0267,0.0257,0.0275,0.0299,0.0303,0.032,0.0389,0.0406,0.0463,0.0478,0.0517,0.051,0.0566,0.0485,0.0538,0.0501,0.0474,0.046,0.0462,0.042,0.0345,0.0393,0.049,0.0478,0.0437,0.0435,0.0433,0,0.0323,0.0313,0.0339,0.0339,0.035,0.0388,0.0413,0.0465,0.0523,0.06,0.0664,0.0696,0.075,0.0732,0.0677,0.0629,0.0731,0.0663,0.0596,0.059,0.0586,0.0575,0.0694,0.0711,0.0711,0.0711,0.0711,0,0.036,0.0385,0.0371,0.0387,0.0457,0.0449,0.0552,0.0584,0.0671,0.0774,0.0763,0.086,0.0821,0.0853,0.0767,0.0744,0.0806,0.0644,0.063,0.0602,0.0593,0.0589,0.0565,0.0713,0.0713,0.0712,0.0712,0,0.0428,0.0408,0.0447,0.0468,0.0483,0.0543,0.0633,0.0714,0.0779,0.0922,0.0962,0.1032,0.1075,0.1004,0.0999,0.0884,0.0827,0.0807,0.0755,0.0734,0.0632,0.0611,0.0707,0.0684,0.0761,0.0761,0.0761,0,0.0463,0.0483,0.0517,0.0552,0.0567,0.0642,0.0708,0.0771,0.0862,0.1029,0.1116,0.1202,0.1263,0.1225,0.1057,0.093,0.0869,0.0812,0.0713,0.0667,0.0635,0.061,0.0581,0.0722,0.0722,0.0721,0.0721,0,0.0543,0.0557,0.0591,0.065,0.0712,0.0791,0.0885,0.0966,0.1068,0.1185,0.1341,0.1406,0.1366,0.1257,0.1076,0.0963,0.0799,0.0797,0.0797,0.067,0.0612,0.0568,0.0603,0.0717,0.0718,0.0718,0.0718,0.0718,0.0616,0.0665,0.0705,0.0763,0.0835,0.0933,0.0999,0.1103,0.1247,0.1391,0.1471,0.1537,0.1408,0.1163,0.1039,0.0789,0.0777,0.0691,0.0685,0.0674,0.0624,0.0632,0.0696,0.0696,0.0696,0.0696,0.0696,0,0.0698,0.0744,0.0811,0.0884,0.0961,0.0982,0.1111,0.1167,0.1307,0.1429,0.1534,0.149,0.1342,0.1141,0.0832,0.07,0.0629,0.0646,0.0628,0.0612,0.0672,0.064,0.0642,0.0642,0.0642,0.0642,0.0642,0.0642,0.0753,0.0827,0.0852,0.0972,0.1022,0.1111,0.1171,0.1254,0.133,0.1415,0.1417,0.1446,0.1346,0.1008,0.0767,0.069,0.0627,0.0587,0.0577,0.0629,0.0633,0.0637,0.0605,0.0599,0.0599,0.0507,0.0506,0.0505]}],[{"header":{"parameterUnit":"m.s-1","parameterCategory":2,"la1":30.2991,"la2":30.254,"lo1":-89.0895,"lo2":-89.0444,"dy":0.0017,"dx":0.0017,"nx":28,"ny":28,"refTime":"2024-08-27T03:00:00:Z","depth":"2","parameterNumber":2,"parameterNumberName":"U-component_of_CURRENTS"},"data":[0,0,0,0,0,0,0,0,0,0,0,0,0,0,0,0,0,0,0,0,0,0,0,0,0,0,0,0,0,0,0,0,0,0,0,0,0,0,0,0,0,0,0,0,0,0,0,0,0,0,0,0,0,0,0,0,0,0,0.2168,0.2169,0,0.2222,0.2222,0.2223,0.2279,0.2281,0.2282,0.2283,0.2296,0.2295,0.2294,0,0,0,0,0,0,0,0,0,0,0,0,0,0.2062,0.2063,0.2168,0.217,0.2171,0.2222,0.2222,0.2223,0.2279,0.2281,0.2282,0.2284,0.2296,0.2295,0.2294,0,0,0,0,0,0,0,0,0,0,0,0,0,0.2105,0.2064,0.2168,0.221,0.2215,0.2222,0.2222,0.2223,0.2279,0.2281,0.2283,0.2285,0.2296,0.2295,0.2293,0.2243,0,0,0.2289,0.2288,0,0,0,0,0,0,0,0,0.2103,0.2108,0.2203,0.2207,0.2213,0.2252,0.219,0.223,0.2278,0.2247,0.2283,0.2286,0.228,0.228,0.2277,0.2243,0.2244,0.2289,0.2288,0.2287,0.2287,0,0,0,0,0,0,0,0.2099,0.2106,0.2183,0.2204,0.221,0.2209,0.2217,0.2197,0.2245,0.225,0.2256,0.2272,0.2282,0.2278,0.2277,0.2244,0.2289,0.2288,0.2287,0.2286,0.226,0.226,0,0,0,0,0,0,0.2107,0.2103,0.2182,0.2185,0.2169,0.221,0.2218,0.2232,0.2247,0.2253,0.227,0.2274,0.2279,0.2279,0.2278,0.2273,0.2287,0.2286,0.2285,0.226,0.226,0.226,0,0,0,0,0,0,0.2104,0.2113,0.2179,0.2151,0.216,0.221,0.2224,0.2232,0.2257,0.2264,0.2268,0.2291,0.2281,0.228,0.2274,0.2273,0.2285,0.2284,0.226,0.226,0.226,0.2229,0,0,0,0,0,0,0.21,0.2111,0.2139,0.2151,0.2162,0.22,0.2223,0.2232,0.2265,0.2271,0.2282,0.2284,0.2282,0.2276,0.2272,0.2271,0.2283,0.226,0.226,0.226,0.223,0.2228,0.2227,0,0,0,0,0,0.2096,0.2103,0.2139,0.215,0.2193,0.2201,0.2206,0.2243,0.2264,0.2272,0.2276,0.2285,0.2277,0.2273,0.227,0.2268,0.2259,0.226,0.226,0.2231,0.2229,0.2227,0,0,0,0,0,0,0.2071,0.2111,0.215,0.2173,0.2203,0.2214,0.2225,0.225,0.2259,0.2265,0.2271,0.2272,0.2277,0.2273,0.227,0.2266,0.2276,0.2275,0.2255,0.2253,0.2251,0.229,0.2282,0,0,0,0,0,0.2081,0.2104,0.214,0.2167,0.2174,0.2205,0.222,0.2243,0.2249,0.2257,0.2266,0.227,0.2269,0.2262,0.2266,0.2241,0.2287,0.2245,0.2243,0.2242,0.2272,0.2372,0.2383,0.2262,0.2262,0.2262,0,0,0.2082,0.211,0.2127,0.2166,0.2184,0.22,0.2217,0.2233,0.2254,0.2252,0.227,0.2269,0.2266,0.2255,0.2256,0.2251,0.2285,0.2242,0.2241,0.2273,0.2374,0.2386,0.2397,0.2262,0.2262,0.2262,0,0,0.2079,0.2114,0.213,0.2148,0.2187,0.2202,0.2213,0.2232,0.2247,0.225,0.2266,0.2269,0.2253,0.226,0.2256,0.2247,0.2286,0.2244,0.2248,0.2343,0.2354,0.2366,0.2374,0.2386,0.2228,0.2228,0.2228,0,0.2085,0.2114,0.2136,0.215,0.217,0.2206,0.2219,0.2231,0.2254,0.2256,0.2258,0.2272,0.2261,0.2268,0.2261,0.2246,0.2287,0.2247,0.2343,0.2356,0.2368,0.2374,0.2388,0.2226,0.2227,0.2227,0.2227,0,0.2095,0.212,0.2118,0.2162,0.2183,0.219,0.2217,0.2234,0.2249,0.2262,0.2279,0.2273,0.229,0.2273,0.2255,0.2319,0.2312,0.2342,0.235,0.2379,0.2382,0.2397,0.2224,0.2225,0.2225,0.2226,0,0,0.2087,0.2121,0.2127,0.2147,0.2185,0.2198,0.222,0.2244,0.2269,0.2278,0.2313,0.2292,0.2309,0.2311,0.2303,0.236,0.2434,0.238,0.2385,0.239,0.2598,0.2407,0.2404,0.2495,0.2499,0.2502,0.2542,0,0.2091,0.2122,0.2139,0.217,0.2178,0.2206,0.2227,0.2255,0.2276,0.2314,0.2317,0.235,0.2318,0.2333,0.2385,0.2457,0.2485,0.2418,0.2569,0.2572,0.2404,0.2421,0.2203,0.2206,0.2557,0.2559,0.2561,0,0.2089,0.2116,0.2145,0.2172,0.2178,0.2202,0.2249,0.2273,0.2319,0.2334,0.2369,0.2399,0.2462,0.2451,0.2577,0.2544,0.2568,0.2603,0.2607,0.2466,0.2413,0.2249,0.2222,0.2587,0.2585,0.2583,0.2582,0,0.2068,0.2105,0.2135,0.2147,0.2193,0.2203,0.2228,0.2272,0.2298,0.2369,0.2408,0.2485,0.254,0.263,0.2666,0.2657,0.2806,0.2804,0.2636,0.262,0.2482,0.2447,0.2898,0.2898,0.2898,0.2898,0.2898,0,0.2033,0.2052,0.2128,0.2137,0.2175,0.2201,0.2239,0.2267,0.2329,0.2365,0.2428,0.2483,0.2606,0.2682,0.2715,0.2704,0.2845,0.2645,0.2636,0.2451,0.2414,0.2802,0.2791,0.2899,0.2899,0.2898,0.2898,0,0.1972,0.2022,0.2066,0.2137,0.2158,0.2185,0.224,0.2265,0.2327,0.2392,0.2425,0.2526,0.2604,0.2667,0.2798,0.2735,0.277,0.2719,0.2435,0.239,0.25,0.2486,0.2553,0.2547,0.2542,0.2538,0.2535,0,0.1946,0.1968,0.2074,0.2106,0.213,0.2175,0.22,0.2258,0.2288,0.2399,0.2428,0.252,0.2506,0.2572,0.2542,0.2523,0.2645,0.2281,0.2212,0.2489,0.2475,0.2469,0.2463,0.2001,0.1993,0.1987,0.1982,0,0.1904,0.1958,0.1987,0.2071,0.2111,0.2152,0.2187,0.2211,0.2279,0.231,0.2339,0.2334,0.2341,0.2201,0.2151,0.2129,0.2269,0.2145,0.2588,0.2093,0.1964,0.1951,0.1964,0.1926,0.1932,0.1936,0.1939,0.1941,0.1883,0.1897,0.1963,0.2017,0.2078,0.2106,0.2095,0.2115,0.2122,0.2092,0.2149,0.2021,0.1991,0.177,0.1719,0.1707,0.1872,0.1789,0.1812,0.184,0.1741,0.1608,0.148,0.1483,0.1486,0.1488,0.149,0,0.1845,0.1858,0.1906,0.1957,0.1983,0.2056,0.2073,0.2007,0.1949,0.188,0.1793,0.1492,0.1338,0.1369,0.1238,0.1198,0.1239,0.116,0.1214,0.1268,0.1316,0.1195,0.0788,0.0786,0.0784,0.0782,0,0,0.1809,0.1806,0.1815,0.1842,0.19,0.1901,0.1895,0.1784,0.1697,0.1456,0.1306,0.1239,0.1271,0.0991,0.0951,0.0862,0.1071,0.082,0.1379,0.1497,0.1543,0.1664,0.1533,0,0,0,0,0]},{"header":{"parameterUnit":"m.s-1","parameterCategory":2,"la1":30.2991,"la2":30.254,"lo1":-89.0895,"lo2":-89.0444,"dy":0.0017,"dx":0.0017,"nx":28,"ny":28,"refTime":"2024-08-27T03:00:00:Z","depth":"2","parameterNumber":3,"parameterNumberName":"V-component_of_CURRENTS"},"data":[0,0,0,0,0,0,0,0,0,0,0,0,0,0,0,0,0,0,0,0,0,0,0,0,0,0,0,0,0,0,0,0,0,0,0,0,0,0,0,0,0,0,0,0,0,0,0,0,0,0,0,0,0,0,0,0,0,0,-0.0153,-0.0154,0,-0.0215,-0.0216,-0.0216,-0.0246,-0.0247,-0.0247,-0.0248,-0.0354,-0.0357,-0.0359,0,0,0,0,0,0,0,0,0,0,0,0,0,-0.0051,-0.0052,-0.0153,-0.0154,-0.0155,-0.0215,-0.0216,-0.0216,-0.0246,-0.0247,-0.0247,-0.0248,-0.0354,-0.0356,-0.0359,0,0,0,0,0,0,0,0,0,0,0,0,0,-0.0097,-0.0053,-0.0152,-0.0182,-0.0186,-0.0215,-0.0216,-0.0216,-0.0246,-0.0247,-0.0248,-0.0248,-0.0353,-0.0356,-0.0359,-0.0365,0,0,-0.037,-0.0372,0,0,0,0,0,0,0,0,-0.0094,-0.01,-0.0176,-0.018,-0.0184,-0.0229,-0.0219,-0.027,-0.0246,-0.0217,-0.0248,-0.0249,-0.032,-0.0326,-0.0327,-0.037,-0.0375,-0.037,-0.0373,-0.0374,-0.0375,0,0,0,0,0,0,0,-0.0091,-0.0097,-0.0171,-0.0178,-0.0183,-0.019,-0.0197,-0.0228,-0.0259,-0.0219,-0.0223,-0.0239,-0.0322,-0.0323,-0.033,-0.0376,-0.037,-0.0374,-0.0376,-0.0377,-0.0447,-0.0447,0,0,0,0,0,0,-0.0095,-0.0094,-0.017,-0.0174,-0.0147,-0.0192,-0.0199,-0.0209,-0.0258,-0.0268,-0.0239,-0.0241,-0.0317,-0.0326,-0.0334,-0.0324,-0.0374,-0.0377,-0.0379,-0.0447,-0.0447,-0.0447,0,0,0,0,0,0,-0.0093,-0.0101,-0.0167,-0.0141,-0.015,-0.0193,-0.0204,-0.021,-0.0232,-0.0273,-0.0283,-0.0258,-0.0318,-0.0329,-0.0367,-0.033,-0.0379,-0.0382,-0.0448,-0.0447,-0.0447,-0.0318,0,0,0,0,0,0,-0.0089,-0.0099,-0.0111,-0.0141,-0.0152,-0.0189,-0.0204,-0.0211,-0.0242,-0.0246,-0.0292,-0.0302,-0.0319,-0.0362,-0.0371,-0.0335,-0.0385,-0.0448,-0.0447,-0.0447,-0.0323,-0.0313,-0.0305,0,0,0,0,0,-0.0085,-0.0094,-0.0111,-0.0121,-0.0166,-0.019,-0.0196,-0.0225,-0.0243,-0.0247,-0.0278,-0.0301,-0.0365,-0.0364,-0.0375,-0.034,-0.0448,-0.0448,-0.0447,-0.0326,-0.0315,-0.0305,0,0,0,0,0,0,-0.006,-0.01,-0.0119,-0.0141,-0.0169,-0.0198,-0.0209,-0.0233,-0.026,-0.0267,-0.0304,-0.0315,-0.0335,-0.0368,-0.0366,-0.0363,-0.0408,-0.041,-0.0313,-0.0303,-0.0294,-0.0248,-0.0388,0,0,0,0,0,-0.0061,-0.0079,-0.0115,-0.0137,-0.0146,-0.0181,-0.0198,-0.0219,-0.0247,-0.026,-0.0295,-0.0326,-0.0337,-0.0346,-0.0377,-0.0377,-0.0383,-0.0364,-0.0355,-0.0347,-0.0319,-0.0263,-0.0244,-0.0445,-0.0445,-0.0445,0,0,-0.0062,-0.0086,-0.0099,-0.0134,-0.0153,-0.0164,-0.0191,-0.0216,-0.0219,-0.0269,-0.0286,-0.0311,-0.0338,-0.033,-0.034,-0.0351,-0.0307,-0.0346,-0.0339,-0.0315,-0.026,-0.0239,-0.0221,-0.0445,-0.0445,-0.0445,0,0,-0.0063,-0.0087,-0.0097,-0.0113,-0.0148,-0.0164,-0.0176,-0.021,-0.0213,-0.0234,-0.0258,-0.0251,-0.0304,-0.0278,-0.0278,-0.0246,-0.0274,-0.0275,-0.0173,-0.0118,-0.0099,-0.0083,-0.0111,-0.0098,-0.0254,-0.0253,-0.0253,0,-0.0064,-0.0078,-0.0105,-0.0113,-0.0118,-0.0163,-0.0163,-0.0172,-0.0217,-0.0184,-0.0233,-0.0228,-0.026,-0.0192,-0.0175,-0.0217,-0.0224,-0.0201,-0.0099,-0.0083,-0.0068,-0.0101,-0.0088,-0.0247,-0.0248,-0.0249,-0.0249,0,-0.007,-0.0077,-0.008,-0.01,-0.0109,-0.0117,-0.0131,-0.0126,-0.0142,-0.0134,-0.0093,-0.012,-0.0093,-0.0108,-0.013,-0.0033,-0.009,-0.0101,-0.011,-0.0039,-0.0081,-0.0069,-0.0238,-0.024,-0.0242,-0.0244,0,0,-0.0067,-0.008,-0.008,-0.0061,-0.0095,-0.0087,-0.0074,-0.0038,0.0023,-0.0011,0.0078,0.0069,0.0081,0.0081,0.0062,0.0111,0.0188,0.0061,0.0061,0.0059,0.0256,0.0187,0.0191,0.0206,0.021,0.0213,0.0169,0,-0.0058,-0.0047,-0.0063,-0.0036,-0.002,-0.0022,0.0015,0.0047,0.0073,0.0145,0.0167,0.0218,0.0145,0.0182,0.0221,0.0211,0.0231,0.0197,0.0165,0.0162,0.0118,0.0209,0.0217,0.0179,0.018,0.0182,0.0183,0,-0.0047,-0.0036,-0.0002,0.0053,0.0065,0.0091,0.0193,0.0215,0.0309,0.0337,0.0401,0.0398,0.0471,0.0391,0.042,0.0403,0.0341,0.0309,0.0307,0.0218,0.0118,0.0114,0.0199,0.0202,0.02,0.0199,0.0198,0,0.0,0.0021,0.0066,0.0075,0.0117,0.0183,0.0221,0.0306,0.0372,0.0483,0.0547,0.0599,0.0648,0.0613,0.0519,0.0493,0.0521,0.0476,0.0336,0.0325,0.0315,0.0299,0.0491,0.0491,0.0491,0.0492,0.0492,0,0.0028,0.0067,0.0117,0.0143,0.0255,0.0267,0.04,0.0454,0.0555,0.0656,0.0667,0.0727,0.0717,0.0707,0.0593,0.0501,0.0576,0.0379,0.0344,0.0348,0.0337,0.0346,0.033,0.049,0.049,0.0491,0.0491,0,0.0063,0.0084,0.0157,0.0236,0.0282,0.0373,0.0492,0.0575,0.067,0.0801,0.0842,0.0877,0.0851,0.0774,0.0717,0.0608,0.0514,0.044,0.04,0.0363,0.0249,0.0239,0.0316,0.0314,0.0312,0.031,0.0309,0,0.0078,0.0116,0.0226,0.0286,0.0334,0.0459,0.0534,0.0635,0.0704,0.0859,0.0908,0.0948,0.0915,0.0789,0.0651,0.0475,0.0444,0.0351,0.032,0.029,0.0247,0.024,0.0233,0.0323,0.0322,0.0321,0.032,0,0.0104,0.015,0.0187,0.0306,0.0411,0.0501,0.0613,0.0682,0.0798,0.0903,0.0968,0.0968,0.0893,0.0736,0.0538,0.0412,0.0395,0.0325,0.0378,0.0359,0.0293,0.0251,0.0245,0.0313,0.0314,0.0314,0.0315,0.0315,0.0122,0.0139,0.0189,0.0294,0.0411,0.0484,0.0548,0.0635,0.073,0.0872,0.0909,0.0918,0.0841,0.0551,0.0406,0.0291,0.0294,0.0227,0.0233,0.0239,0.0241,0.0176,0.0169,0.0169,0.0169,0.0169,0.0168,0,0.0114,0.0097,0.0169,0.0264,0.0347,0.0454,0.0548,0.0585,0.0661,0.0812,0.0872,0.0722,0.0586,0.0489,0.032,0.0197,0.0212,0.0141,0.02,0.0207,0.0214,0.0218,0.0138,0.0138,0.0137,0.0137,0,0,0.0097,0.0097,0.0092,0.0165,0.0264,0.0365,0.042,0.0481,0.0566,0.0643,0.0704,0.0745,0.0628,0.047,0.0337,0.0252,0.0251,0.0221,0.0259,0.0354,0.0362,0.0278,0.0294,0,0,0,0,0]}],[{"header":{"parameterUnit":"m.s-1","parameterCategory":2,"la1":30.2991,"la2":30.254,"lo1":-89.0895,"lo2":-89.0444,"dy":0.0017,"dx":0.0017,"nx":28,"ny":28,"refTime":"2024-08-27T03:00:00:Z","depth":"4","parameterNumber":2,"parameterNumberName":"U-component_of_CURRENTS"},"data":[0,0,0,0,0,0,0,0,0,0,0,0,0,0,0,0,0,0,0,0,0,0,0,0,0,0,0,0,0,0,0,0,0,0,0,0,0,0,0,0,0,0,0,0,0,0,0,0,0,0,0,0,0,0,0,0,0,0,0.0522,0.0522,0,0.0524,0.0524,0.0524,0.0517,0.0517,0.0517,0.0517,0.0556,0.0557,0.0558,0,0,0,0,0,0,0,0,0,0,0,0,0,0.0503,0.0503,0.0522,0.0522,0.0522,0.0524,0.0524,0.0524,0.0517,0.0517,0.0517,0.0516,0.0555,0.0557,0.0558,0,0,0,0,0,0,0,0,0,0,0,0,0,0.051,0.0503,0.0522,0.0518,0.0518,0.0524,0.0524,0.0524,0.0518,0.0517,0.0517,0.0516,0.0555,0.0557,0.0559,0.058,0,0,0.0565,0.0566,0,0,0,0,0,0,0,0,0.0509,0.051,0.0519,0.0518,0.0518,0.0519,0.0531,0.0544,0.0518,0.0519,0.0517,0.0516,0.0546,0.0549,0.0552,0.0582,0.0583,0.0565,0.0566,0.0567,0.0567,0,0,0,0,0,0,0,0.0509,0.051,0.0524,0.0519,0.0518,0.0512,0.0513,0.0533,0.0537,0.0519,0.0518,0.0516,0.0547,0.055,0.0552,0.0584,0.0565,0.0567,0.0568,0.0569,0.0652,0.0653,0,0,0,0,0,0,0.0507,0.051,0.0524,0.0524,0.0511,0.0513,0.0514,0.052,0.0536,0.0537,0.0517,0.0516,0.0546,0.055,0.0554,0.0616,0.0567,0.0569,0.057,0.0651,0.0653,0.0654,0,0,0,0,0,0,0.0507,0.0509,0.0524,0.0515,0.0517,0.0514,0.0521,0.052,0.0538,0.0533,0.0536,0.0536,0.0546,0.0551,0.057,0.0617,0.057,0.0571,0.065,0.0652,0.0653,0.0719,0,0,0,0,0,0,0.0507,0.0509,0.0526,0.0516,0.0517,0.0526,0.0521,0.0521,0.0536,0.0536,0.0551,0.0553,0.0546,0.0566,0.0571,0.0618,0.0573,0.0649,0.0651,0.0653,0.0715,0.0722,0.0728,0,0,0,0,0,0.0506,0.0521,0.0527,0.0529,0.0537,0.0526,0.0526,0.0523,0.0538,0.054,0.0549,0.0553,0.0583,0.0568,0.0574,0.0623,0.0648,0.065,0.0653,0.0712,0.0721,0.0728,0,0,0,0,0,0,0.0518,0.0521,0.0528,0.0544,0.0537,0.0524,0.0534,0.0538,0.055,0.0558,0.0561,0.0563,0.0589,0.0597,0.0581,0.0651,0.062,0.0623,0.0663,0.0671,0.0678,0.0684,0.0575,0,0,0,0,0,0.0531,0.0543,0.0539,0.0549,0.0553,0.0553,0.0556,0.0552,0.0554,0.056,0.0572,0.059,0.0603,0.0628,0.0625,0.0677,0.0688,0.0713,0.0719,0.0725,0.0733,0.0764,0.0775,0.0661,0.0661,0.0661,0,0,0.0532,0.054,0.0544,0.0553,0.0555,0.0555,0.0554,0.0558,0.0573,0.0564,0.06,0.0601,0.0612,0.0648,0.0666,0.0668,0.0768,0.0728,0.0733,0.0737,0.0768,0.0779,0.0789,0.0663,0.0663,0.0662,0,0,0.0536,0.0556,0.0568,0.0566,0.0571,0.0568,0.0575,0.0578,0.06,0.0622,0.0621,0.0652,0.0678,0.0701,0.0716,0.0765,0.0781,0.0775,0.0844,0.0875,0.0885,0.0893,0.0948,0.0961,0.0805,0.0805,0.0805,0,0.0542,0.0558,0.0566,0.0574,0.0578,0.0578,0.0586,0.0604,0.0613,0.0643,0.0636,0.0698,0.0704,0.0774,0.0787,0.0784,0.0807,0.0815,0.0885,0.0893,0.0901,0.0954,0.0968,0.0808,0.0808,0.0807,0.0807,0,0.0542,0.0564,0.0569,0.0583,0.0588,0.059,0.0608,0.0633,0.0662,0.0679,0.0746,0.0766,0.0817,0.0828,0.0824,0.0902,0.0903,0.0869,0.0867,0.0917,0.097,0.0983,0.0813,0.0812,0.0811,0.081,0,0,0.054,0.0567,0.057,0.0587,0.0597,0.0598,0.0638,0.0674,0.0719,0.0754,0.0824,0.0869,0.0905,0.0925,0.0952,0.0987,0.1067,0.0966,0.0966,0.1025,0.1161,0.1024,0.1025,0.1046,0.1048,0.1049,0.1186,0,0.0544,0.0562,0.0577,0.0596,0.0611,0.0631,0.0666,0.07,0.0747,0.0809,0.0875,0.0934,0.0943,0.099,0.1033,0.1031,0.1099,0.1034,0.1099,0.1102,0.0977,0.1034,0.1055,0.1196,0.1198,0.1201,0.1202,0,0.0547,0.0562,0.0582,0.0626,0.0636,0.0652,0.0719,0.075,0.0831,0.0877,0.0969,0.1008,0.1104,0.1084,0.1181,0.114,0.1174,0.1175,0.118,0.1034,0.0987,0.1128,0.1225,0.1223,0.1221,0.122,0.1219,0,0.0541,0.0576,0.0595,0.06,0.0637,0.0677,0.071,0.0779,0.0827,0.0939,0.0984,0.1097,0.1162,0.1212,0.1237,0.1224,0.1302,0.1285,0.1214,0.1207,0.1262,0.1251,0.137,0.137,0.1369,0.1369,0.1369,0,0.054,0.0566,0.0603,0.0606,0.065,0.0687,0.0754,0.0804,0.0893,0.0941,0.1039,0.1101,0.1189,0.1241,0.1267,0.1269,0.1348,0.1238,0.1228,0.1289,0.128,0.1273,0.126,0.1374,0.1373,0.1372,0.1371,0,0.0534,0.0552,0.057,0.0614,0.0645,0.0673,0.0765,0.0797,0.0901,0.0972,0.1014,0.1124,0.1184,0.125,0.1318,0.1294,0.1308,0.1299,0.1383,0.1373,0.1204,0.1193,0.1261,0.1257,0.1254,0.1252,0.1249,0,0.0536,0.0543,0.0563,0.057,0.0599,0.0662,0.0688,0.0789,0.083,0.0966,0.0983,0.109,0.1151,0.1165,0.1223,0.1282,0.1264,0.1288,0.1234,0.1207,0.1192,0.1185,0.1179,0.1244,0.1243,0.1242,0.1242,0,0.0527,0.0523,0.0521,0.0527,0.055,0.0585,0.0656,0.0685,0.0786,0.0884,0.0947,0.0998,0.1055,0.1104,0.1147,0.118,0.1266,0.1254,0.1262,0.1212,0.1187,0.1173,0.1171,0.123,0.1232,0.1233,0.1234,0,0.0509,0.0489,0.0467,0.0473,0.0494,0.0506,0.0553,0.0609,0.0666,0.0823,0.0832,0.0938,0.1034,0.1052,0.1082,0.1098,0.11,0.1076,0.1093,0.1106,0.0982,0.0924,0.089,0,0,0,0,0,0.0484,0.0443,0.0427,0.0406,0.0423,0.0447,0.0517,0.0565,0.0668,0.0681,0.0771,0.0821,0.0883,0.0934,0.0926,0.101,0.1095,0.0994,0.1072,0.1168,0.1181,0.1044,0,0,0,0,0,0,0.0451,0.0426,0.0393,0.0354,0.0347,0.0362,0.0403,0.0472,0.0506,0.0623,0.0662,0.0757,0.0828,0.0881,0.0906,0.0922,0.095,0.1064,0.1062,0.1161,0.1173,0.1183,0.1046,0,0,0,0,0]},{"header":{"parameterUnit":"m.s-1","parameterCategory":2,"la1":30.2991,"la2":30.254,"lo1":-89.0895,"lo2":-89.0444,"dy":0.0017,"dx":0.0017,"nx":28,"ny":28,"refTime":"2024-08-27T03:00:00:Z","depth":"4","parameterNumber":3,"parameterNumberName":"V-component_of_CURRENTS"},"data":[0,0,0,0,0,0,0,0,0,0,0,0,0,0,0,0,0,0,0,0,0,0,0,0,0,0,0,0,0,0,0,0,0,0,0,0,0,0,0,0,0,0,0,0,0,0,0,0,0,0,0,0,0,0,0,0,0,0,0.0196,0.0196,0,0.0224,0.0225,0.0225,0.0238,0.0238,0.0238,0.0238,0.0232,0.0232,0.0232,0,0,0,0,0,0,0,0,0,0,0,0,0,0.0182,0.0182,0.0196,0.0196,0.0197,0.0224,0.0225,0.0225,0.0238,0.0238,0.0238,0.0238,0.0232,0.0232,0.0232,0,0,0,0,0,0,0,0,0,0,0,0,0,0.0198,0.0182,0.0196,0.0205,0.0206,0.0224,0.0225,0.0225,0.0238,0.0238,0.0238,0.0238,0.0232,0.0232,0.0232,0.0237,0,0,0.0232,0.0232,0,0,0,0,0,0,0,0,0.0197,0.0199,0.0204,0.0205,0.0206,0.0226,0.0217,0.0227,0.0238,0.0228,0.0238,0.0237,0.0226,0.0227,0.0235,0.0237,0.0237,0.0232,0.0232,0.0232,0.0232,0,0,0,0,0,0,0,0.0196,0.0198,0.0209,0.0204,0.0205,0.0217,0.0219,0.022,0.0228,0.0229,0.0229,0.023,0.0227,0.0235,0.0235,0.0236,0.0232,0.0232,0.0232,0.0232,0.0219,0.0218,0,0,0,0,0,0,0.0188,0.0196,0.0208,0.0209,0.0199,0.0218,0.022,0.0221,0.0229,0.023,0.023,0.0231,0.0235,0.0235,0.0235,0.023,0.0232,0.0232,0.0232,0.0219,0.0219,0.0218,0,0,0,0,0,0,0.0188,0.0189,0.0207,0.0202,0.0205,0.0218,0.0219,0.0222,0.0234,0.0231,0.0231,0.024,0.0235,0.0235,0.0238,0.023,0.0232,0.0232,0.022,0.0219,0.0219,0.0227,0,0,0,0,0,0,0.0187,0.0189,0.0189,0.0202,0.0205,0.022,0.0219,0.0222,0.0234,0.0235,0.0239,0.0238,0.0235,0.0238,0.0238,0.023,0.0232,0.022,0.0219,0.0219,0.0227,0.0227,0.0226,0,0,0,0,0,0.0187,0.0188,0.0189,0.019,0.0204,0.022,0.0224,0.0233,0.0235,0.0243,0.0244,0.0238,0.0233,0.0239,0.0238,0.023,0.022,0.022,0.0219,0.0227,0.0227,0.0226,0,0,0,0,0,0,0.0183,0.0189,0.0191,0.0194,0.0206,0.0222,0.0228,0.0236,0.0246,0.0246,0.0243,0.0242,0.024,0.0235,0.024,0.0222,0.0222,0.0221,0.0228,0.0228,0.0228,0.0218,0.0232,0,0,0,0,0,0.0181,0.0184,0.0194,0.0198,0.0203,0.0217,0.0225,0.0234,0.0242,0.0247,0.0249,0.0244,0.0236,0.0233,0.0229,0.0226,0.0204,0.0217,0.0216,0.0216,0.0207,0.0164,0.0159,0.0216,0.0216,0.0216,0,0,0.0182,0.0184,0.0188,0.0198,0.0207,0.0218,0.0222,0.0237,0.0245,0.0243,0.0254,0.0247,0.0236,0.023,0.0227,0.0225,0.0191,0.0215,0.0215,0.0206,0.0162,0.0157,0.0152,0.0215,0.0215,0.0215,0,0,0.0184,0.0187,0.0189,0.0201,0.0214,0.0223,0.0228,0.0246,0.0251,0.0263,0.0254,0.0242,0.0246,0.0226,0.0218,0.0212,0.0192,0.0212,0.0201,0.0159,0.0154,0.0149,0.0124,0.0117,0.0209,0.0209,0.0209,0,0.018,0.0187,0.0195,0.0201,0.021,0.0225,0.0234,0.0245,0.0262,0.0255,0.0266,0.0245,0.0238,0.021,0.0207,0.021,0.019,0.0206,0.0158,0.0153,0.0148,0.0123,0.0115,0.0209,0.0209,0.0209,0.0209,0,0.0189,0.0193,0.0198,0.0208,0.022,0.0233,0.0246,0.0255,0.0264,0.0262,0.0247,0.024,0.0222,0.0215,0.0212,0.0169,0.0169,0.0166,0.016,0.0142,0.0118,0.0109,0.021,0.021,0.0209,0.0209,0,0,0.0177,0.0197,0.02,0.0205,0.0226,0.0236,0.0246,0.0249,0.0246,0.0251,0.0236,0.0217,0.0207,0.0195,0.0184,0.0146,0.0099,0.0142,0.0139,0.0117,0.0016,0.0049,0.0043,0.0088,0.0086,0.0085,0.0018,0,0.0179,0.019,0.0203,0.0219,0.0224,0.024,0.0249,0.0252,0.0252,0.0242,0.0216,0.0204,0.0201,0.0194,0.0155,0.0107,0.0075,0.0118,0.0035,0.0033,0.0064,0.0033,0.0079,0.0011,0.0009,0.0007,0.0006,0,0.018,0.0187,0.0199,0.0216,0.0221,0.0236,0.0243,0.0255,0.0238,0.0236,0.021,0.0196,0.0143,0.0152,0.0057,0.0085,0.0052,0.0019,0.0015,0.0033,0.0049,0.0028,-0.001,-0.0008,-0.0007,-0.0006,-0.0005,0,0.0165,0.0184,0.0192,0.0201,0.0223,0.0231,0.0248,0.0245,0.0253,0.0229,0.0223,0.0165,0.0144,0.0078,0.0024,0.0032,-0.0077,-0.0074,-0.0074,-0.0072,-0.0084,-0.0078,-0.0139,-0.0139,-0.0139,-0.0138,-0.0138,0,0.0155,0.0159,0.0188,0.0194,0.0208,0.0227,0.0241,0.0246,0.025,0.0252,0.0221,0.0208,0.0123,0.0063,0.0008,-0.0059,-0.009,-0.0087,-0.0094,-0.0076,-0.0069,-0.0089,-0.0083,-0.0141,-0.014,-0.014,-0.0139,0,0.0121,0.0144,0.0158,0.019,0.02,0.0213,0.0256,0.0266,0.0269,0.027,0.0266,0.0222,0.0148,0.0072,-0.0036,-0.0068,-0.0143,-0.0151,-0.012,-0.0122,-0.0106,-0.0098,-0.0176,-0.0176,-0.0176,-0.0175,-0.0175,0,0.0102,0.0107,0.0154,0.0176,0.0191,0.022,0.0244,0.0271,0.0287,0.0283,0.028,0.0223,0.0188,0.0055,-0.0024,-0.0131,-0.013,-0.017,-0.0148,-0.0115,-0.0114,-0.0107,-0.01,-0.0174,-0.0174,-0.0174,-0.0174,0,0.0066,0.0091,0.011,0.0161,0.0196,0.0229,0.0267,0.0281,0.0311,0.031,0.0293,0.024,0.0166,0.0069,-0.0005,-0.008,-0.0156,-0.0167,-0.0168,-0.0147,-0.0114,-0.0111,-0.0105,-0.0173,-0.0173,-0.0173,-0.0173,0,0.0047,0.006,0.0108,0.0151,0.0194,0.0234,0.0255,0.0286,0.0306,0.0313,0.0304,0.0236,0.0195,0.0097,0.0021,-0.0046,-0.0058,-0.0081,-0.0087,-0.0089,-0.0035,0.0021,-0.0014,0,0,0,0,0,0.0034,0.0061,0.0099,0.0155,0.0197,0.0221,0.0271,0.0293,0.0318,0.0313,0.0317,0.0258,0.0164,0.0115,0.0054,0.0022,-0.0078,-0.0052,-0.011,-0.0166,-0.0167,-0.0115,0,0,0,0,0,0,0.0032,0.0064,0.0094,0.0152,0.0181,0.0226,0.0255,0.0272,0.0278,0.0292,0.0241,0.0235,0.0137,0.0189,0.0045,0.0026,-0.0018,-0.0094,-0.0095,-0.0165,-0.0166,-0.0168,-0.0115,0,0,0,0,0]}]]